Regional Weather Roundup
Issued by NWS Sioux Falls, SD

Home | Current Version | Previous Version | Text Only | Print | Product List | Glossary On
Versions: 1 2 3 4 5 6 7 8 9 10 11 12 13 14 15 16 17 18 19 20 21 22 23 24 25 26 27 28 29 30 31 32 33 34 35 36 37 38 39 40 41 42 43 44 45 46 47 48 49 50
045
ASUS43 KFSD 060902
RWRFSD

WEATHER ROUNDUP FOR SE SOUTH DAKOTA/SW MINNESOTA/NW IOWA
NATIONAL WEATHER SERVICE SIOUX FALLS SD
300 AM CST SAT FEB 06 2016

NOTE: "FAIR" INDICATES FEW OR NO CLOUDS BELOW 12,000 FEET WITH NO
SIGNIFICANT WEATHER AND OR OBSTRUCTIONS TO VISIBILITY.


SDZ038>040-050-052>070-061000-
SOUTHEAST SOUTH DAKOTA

CITY           SKY/WX    TMP DP  RH WIND       PRES   REMARKS
BROOKINGS      CLOUDY    17  15  92 S5        30.12F WCI  10
CHAMBERLAIN    NOT AVBL
HURON          CLOUDY    24  20  84 S8        30.11F WCI  15
MADISON        PTSUNNY   19  19 100 SW9       30.13F FOG     WCI   9
MITCHELL       CLEAR     26  22  84 SW9       30.16F WCI  17
SIOUX FALLS    FOG       23  21  92 CALM      30.17S VSB 1/4
WINNER         FAIR      28  18  66 SW10      30.13F WCI  19
YANKTON        CLEAR     21  18  86 SW7       30.21S WCI  13
$$

MNZ071-072-080-081-089-090-097-098-061000-
SOUTHWEST MINNESOTA

CITY           SKY/WX    TMP DP  RH WIND       PRES   REMARKS
FAIRMONT       CLOUDY    27  21  80 SW10      30.17S WCI  17
JACKSON        FOG       23  19  86 W9        30.17S VSB 1/2 WCI  13
LUVERNE        FOG       27  25  93 SW3       30.17F VSB 1/4
MARSHALL         N/A    N/A N/A N/A MISG        N/A
MONTEVIDEO     CLOUDY    18  16  93 SW7       30.13F WCI   8
PIPESTONE        N/A     23  18  80 W5        30.14S WCI  17
REDWOOD FALLS  CLOUDY    15  13  91 SW7       30.15S WCI   5
TRACY          CLOUDY    21  20  95 SW13      30.14S WCI   9
WINDOM         FOG       21  19  93 SW8       30.15S VSB 1/2 WCI  12
WORTHINGTON    CLOUDY    27  23  86 W14       30.16F VSB 1/2 WCI  15
$$

IAZ001>003-012>014-020>022-031-032-NEZ013-014-SDZ071-061000-
NORTHWEST IOWA

CITY           SKY/WX    TMP DP  RH WIND       PRES   REMARKS
ESTHERVILLE    CLOUDY    24  24 100 W10       30.18S FOG     WCI  14
SIOUX CITY     FOG       18  14  84 S3        30.24S VSB 1/4
SPENCER        PTCLDY    19  16  88 SW7       30.19S FOG     WCI  10
STORM LAKE     CLOUDY    27  27 100 W10       30.21S WCI  17
$$

ABBREVIATIONS USED IN REMARKS
   TC - TEMPERATURE IN CELSIUS
  WCI - WIND CHILL INDEX
   HX - HEAT INDEX
  VSB - VISIBILITY





USA.gov is the U.S. government's official web portal to all federal, state and local government web resources and services.